Regional Weather Roundup
Issued by NWS

Home | Current Version | Previous Version | Graphics & Text | Print | Product List | Glossary On
Versions: 1 2 3 4 5 6 7 8 9 10 11 12 13 14 15 16 17 18 19 20 21 22 23 24 25 26 27 28 29 30 31 32 33 34 35 36 37 38 39 40 41 42 43 44 45 46 47 48 49 50
887
ASUS45 KCYS 312010
RWRWY

WYOMING REGIONAL WEATHER ROUNDUP
NATIONAL WEATHER SERVICE CHEYENNE WY
200 PM MDT TUE MAY 31 2016

NOTE:  "FAIR" INDICATES FEW OR NO CLOUDS BELOW 12,000 FEET
WITH NO SIGNIFICANT WEATHER AND/OR OBSTRUCTIONS TO VISIBILITY.

WYZ001-312100-
YELLOWSTONE NATIONAL PARK

CITY           SKY/WX    TMP DP  RH WIND       PRES   REMARKS
LK YELLOWSTONE   N/A     48  25  40 VRB5      30.25F
W YELLOWSTONE  NOT AVBL

$$
WYZ002>013-054>058-071-098>099-312100-
NORTHERN WYOMING

CITY           SKY/WX    TMP DP  RH WIND       PRES   REMARKS
JACKSON        SUNNY     61  25  25 CALM      30.17F
CODY           FAIR      59  34  38 NE12G22   30.15F
GREYBULL       FAIR      65  31  28 N13G26    30.11F
WORLAND        FAIR      67  24  19 N15G23    30.11F
SHERIDAN       CLOUDY    57  39  51 NW25G32   30.14S
BUFFALO        PTSUNNY   55  37  50 N33G46    30.13R
GILLETTE       PTSUNNY   56  40  55 NW31G39   30.08S
HULETT         DRIZZLE   48  43  81 W14G23    30.08S
NEWCASTLE      FAIR      55  34  44 NW25G37   30.08R

$$
WYZ014>020-022>026-101>103-312100-
CENTRAL WYOMING

CITY           SKY/WX    TMP DP  RH WIND       PRES   REMARKS
BIG PINEY      FAIR      63  28  26 VRB5      30.16F
PINEDALE       FAIR      61  25  25 NW14G22   30.18S
DUBOIS         FAIR      61  14  16 N15G23    30.15F
LANDER         PTSUNNY   61  36  39 VRB3      30.14F
RIVERTON       FAIR      62  33  33 NE9       30.15F
CASPER         FAIR      62  28  27 NW20G25   30.13F
DOUGLAS          N/A    N/A N/A N/A MISG      30.10F

$$
WYZ021-027>030-104>119-312100-
SOUTHERN WYOMING

CITY           SKY/WX    TMP DP  RH WIND       PRES   REMARKS
EVANSTON       FAIR      63  26  24 NE13      30.17F
KEMMERER         N/A     63  30  29 W9G16     30.18S
FORT BRIDGER   CLEAR     66  32  28 NW9       30.20S
ROCK SPRINGS   PTSUNNY   63  33  32 VRB5      30.15F
DIXON          FAIR      66  33  29 NW10      30.16S
RAWLINS        CLOUDY    61  32  33 W14       30.16F
SARATOGA       MOCLDY    61  36  39 N17       30.16S
LARAMIE        FAIR      58  38  47 NW15G21   30.15S
CHEYENNE       CLOUDY    59  41  51 NE6       30.11S
TORRINGTON     FAIR      69  34  27 W9        30.04F
PINE BLUFFS    FAIR      61  41  48 CALM      30.11F

$$




USA.gov is the U.S. government's official web portal to all federal, state and local government web resources and services.